Weather History for KOTG - April, 2014

Change the Weather History Date:

Thursday, April 3, 2014

  Actual Average Record
Temperature  
Mean Temperature 30 °F -  
Max Temperature 33 °F 45 °F 78 °F (1981)
Min Temperature 28 °F 28 °F 5 °F (1975)
Degree Days  
Heating Degree Days 34    
Moisture  
Dew Point 27 °F    
Average Humidity 79    
Maximum Humidity 86    
Minimum Humidity 74    
Precipitation  
Precipitation 0.17 in - - ()
Sea Level Pressure  
Sea Level Pressure 29.84 in    
Wind  
Wind Speed 15 mph (NE)    
Max Wind Speed 23 mph    
Max Gust Speed 28 mph    
Visibility 4 miles    
Events      
Averages and records for this station are not official NWS values.
T = Trace of Precipitation, MM = Missing Value Source: NWS Daily Summary

Daily Weather History Graph

Daily Weather History Graph

Search for Another Location

Airport or City:

Trip Planner

Search our weather history database for the weather conditions in past years. The results will help you decide how hot, cold, wet, or windy it might be!

Date:

Astronomy

Apr. 03, 2014 Rise Set
Actual Time 7:00 AM CDT 7:51 PM CDT
Civil Twilight 6:31 AM CDT 8:20 PM CDT
Nautical Twilight 5:56 AM CDT 8:55 PM CDT
Astronomical Twilight 5:20 AM CDT 9:31 PM CDT
Moon 9:23 AM CDT (4/3) No Moon Set
Length of Visible Light 13h 49m
Length of Day
12h 51m
Waxing Crescent, 17% of the Moon is Illuminated
Apr 3
Waxing Crescent
Apr 7
First Quarter
Apr 15
Full
Apr 22
Last Quarter
Apr 29
New

Hourly Weather History & Observations

Time (CDT) Temp. Windchill Dew Point Humidity Pressure Visibility Wind Dir Wind Speed Gust Speed Precip Events Conditions
12:15 AM 33.8 °F 23.2 °F 26.6 °F 75% 29.95 in 10.0 mi ENE 17.3 mph - N/A   Overcast
12:35 AM 33.8 °F 22.2 °F 26.6 °F 75% 29.92 in 10.0 mi ENE 20.7 mph - N/A   Overcast
12:55 AM 33.8 °F 23.2 °F 26.6 °F 75% 29.93 in 10.0 mi ENE 17.3 mph 23.0 mph N/A   Overcast
1:15 AM 33.8 °F 22.8 °F 26.6 °F 75% 29.92 in 10.0 mi ENE 18.4 mph - N/A   Overcast
1:35 AM 33.8 °F 23.2 °F 26.6 °F 75% 29.89 in 10.0 mi ENE 17.3 mph - N/A   Overcast
1:55 AM 33.8 °F 23.5 °F 26.6 °F 75% 29.89 in 10.0 mi ENE 16.1 mph - N/A   Overcast
2:15 AM 33.8 °F 23.9 °F 26.6 °F 75% 29.91 in 10.0 mi ENE 15.0 mph 18.4 mph N/A   Overcast
2:35 AM 33.8 °F 23.9 °F 26.6 °F 75% 29.91 in 10.0 mi ENE 15.0 mph - N/A   Overcast
2:55 AM 33.8 °F 23.5 °F 26.6 °F 75% 29.91 in 10.0 mi ENE 16.1 mph 19.6 mph N/A   Overcast
3:15 AM 33.8 °F 24.8 °F 26.6 °F 75% 29.91 in 10.0 mi NE 12.7 mph - N/A   Overcast
3:35 AM 33.8 °F 23.9 °F 26.6 °F 75% 29.90 in 10.0 mi NE 15.0 mph - N/A   Overcast
3:55 AM 33.8 °F 23.2 °F 26.6 °F 75% 29.88 in 5.0 mi ENE 17.3 mph - N/A   Overcast
4:15 AM 33.8 °F 23.9 °F 26.6 °F 75% 29.88 in 5.0 mi ENE 15.0 mph - N/A   Overcast
4:35 AM 33.8 °F 23.9 °F 28.4 °F 81% 29.88 in 3.0 mi ENE 15.0 mph - N/A   Overcast
4:55 AM 33.8 °F 23.9 °F 28.4 °F 81% 29.88 in 3.0 mi ENE 15.0 mph - N/A   Overcast
5:15 AM 33.8 °F 23.2 °F 28.4 °F 81% 29.85 in 2.5 mi NE 17.3 mph - N/A   Overcast
5:35 AM 33.8 °F 24.8 °F 28.4 °F 81% 29.87 in 3.0 mi ENE 12.7 mph - N/A   Overcast
5:55 AM 33.8 °F 25.3 °F 28.4 °F 81% 29.88 in 3.0 mi ENE 11.5 mph - N/A   Overcast
6:15 AM 33.8 °F 25.8 °F 28.4 °F 81% 29.89 in 3.0 mi ENE 10.4 mph - N/A   Overcast
6:35 AM 33.8 °F 24.3 °F 28.4 °F 81% 29.88 in 2.5 mi ENE 13.8 mph - N/A   Overcast
6:55 AM 33.8 °F 23.9 °F 28.4 °F 81% 29.87 in 3.0 mi ENE 15.0 mph - N/A   Overcast
7:15 AM 33.8 °F 24.3 °F 28.4 °F 81% 29.87 in 2.0 mi ENE 13.8 mph - N/A   Overcast
7:35 AM 33.8 °F 25.3 °F 28.4 °F 81% 29.86 in 2.0 mi ENE 11.5 mph - N/A   Overcast
7:55 AM 33.8 °F 23.5 °F 28.4 °F 81% 29.84 in 2.5 mi ENE 16.1 mph - N/A   Overcast
8:15 AM 33.8 °F 23.9 °F 28.4 °F 81% 29.84 in 2.5 mi ENE 15.0 mph - N/A   Overcast
8:35 AM 33.8 °F 24.3 °F 28.4 °F 81% 29.86 in 5.0 mi ENE 13.8 mph - N/A   Overcast
8:55 AM 33.8 °F 25.3 °F 28.4 °F 81% 29.85 in 8.0 mi ENE 11.5 mph - N/A   Overcast
9:15 AM 33.8 °F 24.3 °F 28.4 °F 81% 29.85 in 4.0 mi ENE 13.8 mph - N/A   Overcast
9:35 AM 33.8 °F 25.3 °F 28.4 °F 81% 29.85 in 3.0 mi ENE 11.5 mph - N/A   Overcast
9:55 AM 33.8 °F 25.8 °F 28.4 °F 81% 29.85 in 3.0 mi ENE 10.4 mph - N/A   Overcast
10:15 AM 33.8 °F 25.8 °F 28.4 °F 81% 29.86 in 3.0 mi ENE 10.4 mph - N/A   Overcast
10:35 AM 33.8 °F 25.8 °F 28.4 °F 81% 29.86 in 2.5 mi ENE 10.4 mph - N/A   Overcast
10:55 AM 33.8 °F 24.8 °F 28.4 °F 81% 29.86 in 2.0 mi ENE 12.7 mph - N/A   Overcast
11:15 AM 33.8 °F 25.3 °F 28.4 °F 81% 29.86 in 2.5 mi NE 11.5 mph - N/A   Overcast
11:35 AM 33.8 °F 25.8 °F 28.4 °F 81% 29.85 in 2.5 mi NE 10.4 mph - N/A   Overcast
11:55 AM 33.8 °F 23.9 °F 28.4 °F 81% 29.83 in 3.0 mi ENE 15.0 mph - N/A   Overcast
12:15 PM 33.8 °F 24.3 °F 28.4 °F 81% 29.84 in 4.0 mi NE 13.8 mph - N/A   Overcast
12:35 PM 33.8 °F 24.8 °F 28.4 °F 81% 29.84 in 4.0 mi NE 12.7 mph - N/A   Overcast
12:55 PM 33.8 °F 24.3 °F 28.4 °F 81% 29.82 in 3.0 mi NE 13.8 mph - N/A   Overcast
1:15 PM 33.8 °F 23.9 °F 28.4 °F 81% 29.82 in 5.0 mi NE 15.0 mph - N/A   Overcast
1:35 PM 33.8 °F 25.8 °F 28.4 °F 81% 29.83 in 4.0 mi NE 10.4 mph - N/A   Overcast
1:55 PM 33.8 °F 25.8 °F 28.4 °F 81% 29.83 in 3.0 mi NE 10.4 mph - N/A   Overcast
2:15 PM 33.8 °F 25.3 °F 28.4 °F 81% 29.81 in 2.5 mi NE 11.5 mph - 0.02 in   Overcast
2:35 PM 33.8 °F 23.9 °F 28.4 °F 81% 29.78 in 2.5 mi NNE 15.0 mph - 0.06 in   Overcast
2:55 PM 33.8 °F 25.3 °F 28.4 °F 81% 29.80 in 5.0 mi NNE 11.5 mph - 0.06 in   Overcast
3:15 PM 33.8 °F 24.3 °F 28.4 °F 81% 29.79 in 4.0 mi NNE 13.8 mph - N/A   Overcast
3:35 PM 33.8 °F 23.9 °F 28.4 °F 81% 29.77 in 4.0 mi NNE 15.0 mph - 0.01 in   Overcast
3:55 PM 33.8 °F 25.3 °F 26.6 °F 75% 29.79 in 3.0 mi NNE 11.5 mph - 0.03 in   Overcast
4:15 PM 33.8 °F 25.3 °F 26.6 °F 75% 29.79 in 1.2 mi NNE 11.5 mph - 0.03 in   Overcast
4:35 PM 33.8 °F 24.3 °F 26.6 °F 75% 29.78 in 0.5 mi NNE 13.8 mph - 0.06 in   Mostly Cloudy
4:55 PM 33.8 °F 25.8 °F 26.6 °F 75% 29.80 in 0.5 mi NNE 10.4 mph - 0.07 in   Unknown
5:15 PM 33.8 °F 24.3 °F 26.6 °F 75% 29.79 in 1.0 mi NNE 13.8 mph - N/A   Clear
5:35 PM 32.0 °F 22.1 °F 26.6 °F 80% 29.79 in 2.0 mi NNE 13.8 mph - N/A   Clear
5:55 PM 32.0 °F 22.1 °F 26.6 °F 80% 29.77 in 3.0 mi North 13.8 mph 19.6 mph N/A   Mostly Cloudy
6:15 PM 32.0 °F 24.2 °F 26.6 °F 80% 29.80 in 2.0 mi North 9.2 mph - N/A   Overcast
6:35 PM 32.0 °F 22.1 °F 26.6 °F 80% 29.79 in 2.0 mi North 13.8 mph - N/A   Overcast
6:55 PM 32.0 °F 21.6 °F 26.6 °F 80% 29.79 in 1.5 mi North 15.0 mph - N/A   Overcast
7:15 PM 32.0 °F 20.8 °F 26.6 °F 80% 29.78 in 1.0 mi North 17.3 mph - N/A   Overcast
7:35 PM 30.2 °F 20.8 °F 26.6 °F 86% 29.79 in 0.8 mi North 11.5 mph - N/A   Overcast
7:55 PM 30.2 °F 19.3 °F 26.6 °F 86% 29.79 in 0.2 mi North 15.0 mph - 0.01 in   Overcast
8:15 PM 30.2 °F 19.3 °F 24.8 °F 80% 29.78 in 0.8 mi North 15.0 mph - N/A   Unknown
8:35 PM 30.2 °F 19.8 °F 24.8 °F 80% 29.79 in 0.5 mi North 13.8 mph - N/A   Unknown
8:55 PM 30.2 °F 20.2 °F 24.8 °F 80% 29.80 in 1.2 mi North 12.7 mph - N/A   Clear
9:15 PM 30.2 °F 20.2 °F 24.8 °F 80% 29.81 in 1.8 mi NNE 12.7 mph - N/A   Clear
9:35 PM 30.2 °F 19.3 °F 24.8 °F 80% 29.81 in 1.8 mi NNE 15.0 mph 20.7 mph N/A   Clear
10:55 PM 28.4 °F 15.8 °F 23.0 °F 80% 29.78 in 2.0 mi North 18.4 mph 24.2 mph N/A   Clear
11:15 PM 28.4 °F 16.2 °F 23.0 °F 80% 29.77 in 1.2 mi North 17.3 mph - N/A   Clear
11:35 PM 28.4 °F 14.7 °F 23.0 °F 80% 29.77 in 1.2 mi North 21.9 mph - N/A   Clear
11:55 PM 28.4 °F 14.4 °F 21.2 °F 74% 29.77 in 1.5 mi North 23.0 mph 27.6 mph N/A   Clear